Location: Haskovo
(41.9227°N, 25.5707°E)
Time: 22:41:35
(UTC+03:00)

ISS - Pass Details

Date: 23 May 2025
Orbit: 415 x 416 km, 51.6° (Epoch: 16 June)

Event Time Altitude Azimuth Distance (km) Brightness Sun altitude
Rises 23:18:49 0° 298° (WNW) 2,358 1.0 -21.9°
Reaches altitude 10° 23:21:00 10° 290° (WNW) 1,491 -0.3 -22.0°
Enters shadow 23:23:01 27° 263° (W) 832 -2.1 -22.2°
